Time,TemperatureF,DewpointF,PressureIn,WindDirection,WindDirectionDegrees,WindSpeedMPH,WindSpeedGustMPH,Humidity,HourlyPrecipIn,Conditions,Clouds,dailyrainin,SolarRadiationWatts/m^2,SoftwareType,DateUTC
2013-09-27 00:02:00,43.0,38.0,-100.00,NNE,21,2.0,14.0,84,0.00,,,0.00,0.000000,,2013-09-27 07:02:00,
2013-09-27 00:44:00,43.0,38.0,-100.00,SSW,205,4.0,14.0,84,0.00,,,0.00,0.000000,,2013-09-27 07:44:00,
2013-09-27 00:53:00,43.0,38.0,-100.00,SSW,205,4.0,14.0,84,0.00,,,0.00,0.000000,,2013-09-27 07:53:00,
2013-09-27 01:02:00,43.0,38.0,-100.00,SSW,205,4.0,14.0,84,0.00,,,0.00,0.000000,,2013-09-27 08:02:00,
2013-09-27 01:42:00,42.0,38.0,-100.00,NNE,20,4.0,12.0,86,0.00,,,0.00,0.000000,,2013-09-27 08:42:00,
2013-09-27 01:52:00,42.0,38.0,-100.00,NNE,20,4.0,12.0,86,0.00,,,0.00,0.000000,,2013-09-27 08:52:00,
2013-09-27 02:02:00,42.0,38.0,-100.00,NNE,20,4.0,12.0,86,0.00,,,0.00,0.000000,,2013-09-27 09:02:00,
2013-09-27 02:44:00,40.0,36.0,-100.00,NNE,18,2.0,12.0,85,0.00,,,0.00,0.000000,,2013-09-27 09:44:00,
2013-09-27 02:53:00,40.0,36.0,-100.00,NNE,18,2.0,12.0,85,0.00,,,0.00,0.000000,,2013-09-27 09:53:00,
2013-09-27 03:03:00,40.0,36.0,-100.00,NNE,18,2.0,12.0,85,0.00,,,0.00,0.000000,,2013-09-27 10:03:00,
2013-09-27 03:42:00,38.0,34.0,-100.00,SW,217,2.0,9.0,87,0.00,,,0.00,0.000000,,2013-09-27 10:42:00,
2013-09-27 03:52:00,38.0,34.0,-100.00,SW,217,2.0,9.0,87,0.00,,,0.00,0.000000,,2013-09-27 10:52:00,
2013-09-27 04:02:00,38.0,34.0,-100.00,SW,217,2.0,9.0,87,0.00,,,0.00,0.000000,,2013-09-27 11:02:00,
2013-09-27 04:43:00,37.0,34.0,-100.00,NNE,27,1.0,7.0,88,0.00,,,0.00,0.000000,,2013-09-27 11:43:00,
2013-09-27 04:52:00,37.0,34.0,-100.00,NNE,27,1.0,7.0,88,0.00,,,0.00,0.000000,,2013-09-27 11:52:00,
2013-09-27 05:02:00,37.0,34.0,-100.00,NNE,27,1.0,7.0,88,0.00,,,0.00,0.000000,,2013-09-27 12:02:00,
2013-09-27 05:42:00,40.0,35.0,-100.00,North,0,3.0,8.0,83,0.00,,,0.00,0.000000,,2013-09-27 12:42:00,
2013-09-27 05:52:00,40.0,35.0,-100.00,North,0,3.0,8.0,83,0.00,,,0.00,0.000000,,2013-09-27 12:52:00,
2013-09-27 06:02:00,40.0,35.0,-100.00,North,0,3.0,8.0,83,0.00,,,0.00,0.000000,,2013-09-27 13:02:00,
2013-09-27 06:42:00,39.0,31.0,-100.00,SW,220,0.0,8.0,74,0.00,,,0.00,0.000000,,2013-09-27 13:42:00,
2013-09-27 06:52:00,39.0,31.0,-100.00,SW,220,0.0,8.0,74,0.00,,,0.00,0.000000,,2013-09-27 13:52:00,
2013-09-27 07:02:00,39.0,31.0,-100.00,SW,220,0.0,8.0,74,0.00,,,0.00,0.000000,,2013-09-27 14:02:00,
2013-09-27 07:42:00,41.0,34.0,-100.00,WSW,248,0.0,7.0,77,0.00,,,0.00,11.000000,,2013-09-27 14:42:00,
2013-09-27 07:52:00,41.0,34.0,-100.00,WSW,248,0.0,7.0,77,0.00,,,0.00,11.000000,,2013-09-27 14:52:00,
2013-09-27 08:02:00,41.0,34.0,-100.00,WSW,248,0.0,7.0,77,0.00,,,0.00,11.000000,,2013-09-27 15:02:00,
2013-09-27 08:44:00,43.0,35.0,-100.00,ENE,77,0.0,0.0,73,0.00,,,0.00,30.000000,,2013-09-27 15:44:00,
2013-09-27 08:54:00,43.0,35.0,-100.00,ENE,77,0.0,0.0,73,0.00,,,0.00,30.000000,,2013-09-27 15:54:00,
2013-09-27 09:04:00,43.0,35.0,-100.00,ENE,77,0.0,0.0,73,0.00,,,0.00,30.000000,,2013-09-27 16:04:00,
2013-09-27 09:44:00,44.0,35.0,-100.00,NE,50,0.0,3.0,70,0.00,,,0.00,78.000000,,2013-09-27 16:44:00,
2013-09-27 09:53:00,44.0,35.0,-100.00,NE,50,0.0,3.0,70,0.00,,,0.00,78.000000,,2013-09-27 16:53:00,
2013-09-27 10:03:00,44.0,35.0,-100.00,NE,50,0.0,3.0,70,0.00,,,0.00,78.000000,,2013-09-27 17:03:00,
2013-09-27 10:43:00,50.0,35.0,-100.00,WSW,253,0.0,3.0,56,0.00,,,0.00,252.000000,,2013-09-27 17:43:00,
2013-09-27 10:52:00,50.0,35.0,-100.00,WSW,253,0.0,3.0,56,0.00,,,0.00,252.000000,,2013-09-27 17:52:00,
2013-09-27 11:02:00,50.0,35.0,-100.00,WSW,253,0.0,3.0,56,0.00,,,0.00,252.000000,,2013-09-27 18:02:00,
2013-09-27 11:43:00,53.0,36.0,-100.00,NW,317,1.0,4.0,53,0.00,,,0.00,437.000000,,2013-09-27 18:43:00,
2013-09-27 11:52:00,53.0,36.0,-100.00,NW,317,1.0,4.0,53,0.00,,,0.00,437.000000,,2013-09-27 18:52:00,
2013-09-27 12:02:00,53.0,36.0,-100.00,NW,317,1.0,4.0,53,0.00,,,0.00,437.000000,,2013-09-27 19:02:00,
2013-09-27 12:43:00,50.0,37.0,-100.00,WSW,243,2.0,6.0,60,0.00,,,0.00,295.000000,,2013-09-27 19:43:00,
2013-09-27 12:53:00,50.0,37.0,-100.00,WSW,243,2.0,6.0,60,0.00,,,0.00,295.000000,,2013-09-27 19:53:00,
2013-09-27 13:03:00,50.0,37.0,-100.00,WSW,243,2.0,6.0,60,0.00,,,0.00,295.000000,,2013-09-27 20:03:00,
2013-09-27 13:43:00,49.0,39.0,-100.00,SW,221,1.0,8.0,68,0.00,,,0.00,140.000000,,2013-09-27 20:43:00,
2013-09-27 13:52:00,49.0,39.0,-100.00,SW,221,1.0,8.0,68,0.00,,,0.00,140.000000,,2013-09-27 20:52:00,
2013-09-27 14:02:00,49.0,39.0,-100.00,SW,221,1.0,8.0,68,0.00,,,0.00,140.000000,,2013-09-27 21:02:00,
2013-09-27 14:44:00,50.0,40.0,-100.00,WSW,247,0.0,8.0,68,0.00,,,0.00,91.000000,,2013-09-27 21:44:00,
2013-09-27 14:54:00,50.0,40.0,-100.00,WSW,247,0.0,8.0,68,0.00,,,0.00,91.000000,,2013-09-27 21:54:00,
2013-09-27 15:04:00,50.0,40.0,-100.00,WSW,247,0.0,8.0,68,0.00,,,0.00,91.000000,,2013-09-27 22:04:00,
2013-09-27 15:43:00,46.0,44.0,-100.00,South,180,0.0,4.0,92,0.01,,,0.01,161.000000,,2013-09-27 22:43:00,
2013-09-27 15:53:00,46.0,44.0,-100.00,South,180,0.0,4.0,92,0.01,,,0.01,161.000000,,2013-09-27 22:53:00,
2013-09-27 16:03:00,46.0,44.0,-100.00,South,180,0.0,4.0,92,0.01,,,0.01,161.000000,,2013-09-27 23:03:00,
2013-09-27 16:43:00,49.0,46.0,-100.00,North,3,0.0,4.0,88,0.00,,,0.01,124.000000,,2013-09-27 23:43:00,
2013-09-27 16:53:00,49.0,46.0,-100.00,North,3,0.0,4.0,88,0.00,,,0.01,124.000000,,2013-09-27 23:53:00,
2013-09-27 17:02:00,49.0,46.0,-100.00,North,3,0.0,4.0,88,0.00,,,0.01,124.000000,,2013-09-28 00:02:00,
2013-09-27 17:42:00,46.0,46.0,-100.00,SW,236,0.0,4.0,99,0.04,,,0.05,55.000000,,2013-09-28 00:42:00,
2013-09-27 17:52:00,46.0,46.0,-100.00,SW,236,0.0,4.0,99,0.04,,,0.05,55.000000,,2013-09-28 00:52:00,
2013-09-27 18:01:00,46.0,46.0,-100.00,SW,236,0.0,4.0,99,0.04,,,0.05,55.000000,,2013-09-28 01:01:00,
2013-09-27 18:42:00,47.0,47.0,-100.00,SW,218,0.0,4.0,100,0.02,,,0.07,9.000000,,2013-09-28 01:42:00,
2013-09-27 18:52:00,47.0,47.0,-100.00,SW,218,0.0,4.0,100,0.02,,,0.07,9.000000,,2013-09-28 01:52:00,
2013-09-27 19:03:00,47.0,47.0,-100.00,SW,218,0.0,4.0,100,0.02,,,0.07,9.000000,,2013-09-28 02:03:00,
2013-09-27 19:42:00,45.0,45.0,-100.00,West,266,0.0,3.0,100,0.01,,,0.08,0.000000,,2013-09-28 02:42:00,
2013-09-27 19:53:00,45.0,45.0,-100.00,West,266,0.0,3.0,100,0.01,,,0.08,0.000000,,2013-09-28 02:53:00,
2013-09-27 20:03:00,45.0,45.0,-100.00,West,266,0.0,3.0,100,0.01,,,0.08,0.000000,,2013-09-28 03:03:00,
2013-09-27 20:45:00,45.0,45.0,-100.00,WSW,255,0.0,3.0,100,0.00,,,0.08,0.000000,,2013-09-28 03:45:00,
2013-09-27 20:55:00,45.0,45.0,-100.00,WSW,255,0.0,3.0,100,0.00,,,0.08,0.000000,,2013-09-28 03:55:00,
2013-09-27 21:04:00,45.0,45.0,-100.00,WSW,255,0.0,3.0,100,0.00,,,0.08,0.000000,,2013-09-28 04:04:00,
2013-09-27 21:43:00,47.0,47.0,-100.00,WSW,237,0.0,0.0,100,0.03,,,0.11,0.000000,,2013-09-28 04:43:00,
2013-09-27 21:54:00,47.0,47.0,-100.00,WSW,237,0.0,0.0,100,0.03,,,0.11,0.000000,,2013-09-28 04:54:00,
2013-09-27 22:03:00,47.0,47.0,-100.00,WSW,237,0.0,0.0,100,0.03,,,0.11,0.000000,,2013-09-28 05:03:00,
2013-09-27 22:43:00,45.0,45.0,-100.00,SSE,159,0.0,6.0,100,0.02,,,0.13,0.000000,,2013-09-28 05:43:00,
2013-09-27 22:53:00,45.0,45.0,-100.00,SSE,159,0.0,6.0,100,0.02,,,0.13,0.000000,,2013-09-28 05:53:00,
2013-09-27 23:02:00,45.0,45.0,-100.00,SSE,159,0.0,6.0,100,0.02,,,0.13,0.000000,,2013-09-28 06:02:00,
2013-09-27 23:42:00,46.0,46.0,-100.00,South,189,0.0,0.0,100,0.08,,,0.21,0.000000,,2013-09-28 06:42:00,
2013-09-27 23:52:00,46.0,46.0,-100.00,South,189,0.0,0.0,100,0.08,,,0.21,0.000000,,2013-09-28 06:52:00,